Location: D�derode
(51.8092°N, 10.1065°E)
Time: 06:08:29
(UTC+00:00)

BREEZE-M DEB (TANK) - Pass Details

Date: 01 December 2020
Orbit: 307 x 13101 km, 49.6° (Epoch: 22 January)

Event Time Altitude Azimuth Distance (km) Brightness Sun altitude
Rises 15:57:03 0° 249° (WSW) 2,559 8.7 -6.7°
Reaches altitude 10° 15:58:25 10° 246° (WSW) 1,948 7.4 -6.9°
Maximum altitude 16:02:22 69° 163° (SSE) 1,121 4.4 -7.4°
Drops below altitude 10° 16:16:08 10° 84° (E) 6,369 7.6 -9.4°
Enters shadow 16:18:16 - 84° (E) 7,152 7.8 -9.7°
